Wind_Speed
20 19 23 25 26 27 29 40 38 38 40 37 38 37 34 34 38 30 34 37 37 35 30 28 26 24 23 26 26 25 25 27 30 31 34 36 32 34 34 36 33 36 37 40 41 40 40 41 42
22 22 22 21 20 11 15 39 41 41 43 43 37 38 34 36 37 38 37 34 35 35 34 34 24 24 18 27 31 33 33 34 34 34 36 33 37 38 39 39 39 39 38 40 41 40 42 43 43
23 24 23 20 19 20 16 39 37 41 44 46 46 42 40 37 39 36 35 36 36 33 33 35 33 33 32 27 25 22 25 29 36 38 37 38 41 39 42 46 44 42 42 45 45 47 45 46 51
21 23 25 24 25 25 34 35 33 40 42 45 48 49 44 45 40 37 39 40 36 38 37 34 30 32 35 32 35 37 40 41 44 44 46 46 50 50 47 46 49 47 51 49 52 52 56 61 59
26 26 26 27 27 33 33 35 35 36 38 44 47 49 50 50 49 48 45 43 46 41 41 38 38 39 39 41 42 42 44 47 47 51 52 55 54 51 49 53 56 57 60 60 62 65 64 63 62
31 31 31 30 31 35 34 36 37 38 37 37 43 48 50 51 52 53 54 52 46 49 49 47 47 47 46 47 48 47 48 49 49 54 56 57 53 54 55 56 60 61 62 63 65 64 64 65 62
33 34 33 33 33 37 37 38 40 40 40 39 39 40 46 49 52 54 56 57 54 41 40 46 47 43 42 43 44 41 42 51 56 56 53 52 56 58 62 64 64 64 60 61 60 61 60 58 58
27 30 30 30 29 31 33 34 36 38 40 42 40 40 39 43 47 50 53 55 57 58 54 53 51 46 47 48 52 56 58 56 56 55 54 56 61 59 59 61 62 57 57 54 57 58 56 57 57
20 25 24 24 25 29 31 33 33 34 35 40 41 42 42 41 39 43 47 48 49 50 52 51 49 48 48 51 51 51 53 55 55 56 58 59 57 56 56 55 51 50 53 57 59 60 61 64 62
19 21 24 24 27 30 32 33 29 27 26 28 31 36 41 43 41 41 40 43 46 43 42 42 43 46 46 48 49 49 49 52 50 48 52 49 47 47 44 43 44 46 53 56 60 63 63 63 63
22 24 23 26 28 29 30 29 23 22 22 24 27 29 32 38 41 42 41 39 40 44 43 41 41 42 44 44 44 47 49 51 49 42 42 39 39 42 46 48 50 52 59 61 59 59 60 60 60
25 23 24 26 27 25 26 22 21 22 20 25 26 28 30 31 37 42 42 41 40 39 41 44 46 45 44 45 45 47 47 43 37 36 38 44 44 47 51 53 55 56 62 63 60 59 60 61 61
28 24 25 27 29 28 29 29 27 26 27 27 27 29 31 32 31 31 36 42 44 41 38 38 38 47 48 47 45 40 34 29 37 39 41 48 53 53 57 58 58 59 65 65 64 64 63 64 64
30 27 26 27 29 31 33 33 32 32 32 32 32 34 34 32 32 30 29 29 29 29 27 35 42 44 45 45 42 39 35 38 42 46 48 53 55 56 58 58 59 63 67 67 67 66 66 67 66
32 30 28 30 29 30 33 35 34 34 35 35 36 37 36 35 35 35 34 35 35 36 30 41 43 43 44 41 37 39 38 43 48 50 50 56 55 57 58 60 60 64 68 71 70 68 67 66 67
31 32 33 32 33 32 33 34 33 33 35 36 37 37 36 37 37 38 38 38 38 39 39 41 40 40 40 39 33 36 41 46 48 50 54 55 55 57 60 61 61 65 70 73 72 72 71 71 68
33 33 35 35 35 35 34 36 34 35 35 37 37 36 37 38 38 38 37 37 36 37 35 36 36 38 36 33 38 42 45 46 48 51 54 56 57 59 61 62 63 67 73 75 75 76 73 68 63
34 37 37 37 37 36 36 36 33 35 35 35 36 37 38 38 37 37 37 36 35 34 33 34 35 38 39 41 43 43 45 45 50 54 56 58 59 61 63 63 64 69 75 76 76 68 61 60 60
36 38 39 39 35 35 33 32 35 37 37 36 35 36 37 37 38 37 36 35 33 31 32 31 35 39 42 41 41 41 45 48 53 56 56 59 60 63 64 63 66 71 75 74 69 64 61 63 66
38 39 39 38 38 33 34 33 35 37 38 37 36 35 34 35 34 34 32 31 28 26 27 29 33 37 39 41 41 44 48 52 55 56 58 61 62 65 64 65 68 74 73 71 69 66 69 77 75
42 40 41 42 39 40 38 37 37 38 38 39 38 35 32 32 28 32 31 29 27 30 31 33 35 37 40 41 42 46 50 53 56 57 60 63 65 65 65 67 71 74 73 74 70 70 76 76 73
46 42 44 44 44 45 42 40 40 38 36 35 38 37 32 30 30 31 30 29 30 33 36 38 38 40 40 42 46 48 51 55 56 59 62 64 66 65 67 69 73 76 74 76 74 75 80 78 75
47 46 47 46 47 47 44 44 43 38 39 37 38 37 36 33 30 31 32 32 32 37 40 40 40 42 43 46 49 51 54 55 58 61 63 65 66 65 68 72 75 76 77 78 76 77 81 81 75
49 49 49 48 48 47 50 47 46 43 40 41 40 37 36 36 34 34 35 35 35 35 38 42 44 45 45 48 51 53 53 56 60 62 64 64 66 66 69 74 76 77 79 79 78 84 83 81 75
55 54 54 53 51 47 49 49 49 50 48 46 44 38 24 43 40 38 38 40 40 39 40 43 47 49 49 52 54 53 54 58 60 62 63 64 64 68 71 76 77 78 80 80 80 82 85 80 72
55 57 56 57 55 54 52 47 49 49 52 52 52 47 46 47 43 43 42 43 44 44 42 45 49 50 50 52 53 53 57 59 60 61 62 63 65 68 73 77 78 81 80 80 83 84 85 77 69
57 56 58 56 57 58 57 56 51 50 48 51 54 53 50 49 49 47 48 48 49 49 49 48 49 53 50 51 53 55 58 60 61 61 63 63 65 70 74 78 80 81 80 82 85 88 83 73 66
57 57 57 60 59 58 58 57 57 59 55 51 48 48 46 46 53 56 54 54 54 54 54 55 55 53 53 54 57 57 59 61 61 61 62 63 67 71 74 75 80 78 81 83 87 90 81 71 62
53 58 59 58 59 61 61 60 65 59 62 54 55 51 40 24 70 63 63 58 53 54 56 56 57 56 54 55 56 59 60 61 60 61 62 65 68 71 74 78 81 82 83 87 90 89 77 67 62
56 58 58 59 61 62 60 58 66 67 66 63 61 60 39 29 72 74 52 47 49 49 53 54 55 54 54 54 57 58 58 59 59 60 61 65 69 71 74 80 79 81 85 90 89 84 70 64 61
Wind_Direction
235 236 234 233 233 240 244 245 240 227 223 228 230 234 236 228 230 231 232 238 248 256 257 265 282 281 285 286 290 290 292 291 288 285 292 287 291 296 297 296 292 296 291 292 287 284 282 282 282
240 243 234 229 229 214 231 266 246 240 230 227 224 232 235 237 238 240 242 243 248 254 259 264 258 257 273 265 280 276 280 282 286 282 284 282 293 299 298 298 297 295 291 292 289 283 289 289 286
239 240 236 228 223 213 204 253 244 241 241 236 240 229 224 228 240 243 243 250 249 251 257 261 261 260 267 248 254 265 265 270 277 285 289 296 300 292 293 294 291 290 290 290 291 283 289 291 293
240 242 247 241 234 241 232 242 242 240 239 242 242 248 239 237 234 241 244 242 248 249 250 252 257 258 253 261 260 266 269 272 272 281 291 294 296 295 295 293 292 292 293 291 292 289 287 290 289
248 252 251 254 244 236 245 248 245 242 241 241 243 245 247 248 250 253 250 246 248 251 252 260 255 258 258 263 262 271 271 275 279 284 287 293 295 293 290 289 287 291 291 293 293 289 290 289 283
249 251 252 253 252 251 251 252 253 251 246 242 242 244 247 250 249 251 253 260 262 258 260 260 264 271 273 274 275 277 273 278 283 287 290 294 292 291 294 293 292 291 291 294 293 289 287 284 282
253 250 250 253 255 257 258 256 253 252 252 249 246 245 246 249 252 252 252 254 252 255 259 266 269 269 269 272 274 277 281 287 291 291 290 286 287 290 292 293 293 294 294 291 289 287 285 282 280
258 255 253 253 258 263 266 263 260 255 252 250 253 253 252 251 252 255 257 257 257 262 264 264 267 266 270 275 278 281 283 286 287 287 284 289 292 293 293 293 292 290 292 288 287 285 284 284 283
265 254 254 255 261 262 263 262 261 263 258 253 252 256 258 258 258 258 257 261 264 266 268 272 274 274 276 278 282 282 283 285 284 288 290 290 293 294 290 292 296 302 304 301 297 295 294 290 285
266 256 254 257 261 265 260 256 256 260 264 264 263 260 259 261 265 266 269 264 261 265 269 272 273 275 277 279 281 285 284 284 288 289 290 290 292 296 297 301 303 305 312 308 299 294 293 291 291
259 262 263 263 265 268 259 256 259 263 267 268 270 271 264 259 259 262 266 268 266 266 268 271 271 274 276 280 283 281 284 287 290 291 290 298 300 301 301 304 308 310 317 314 305 300 299 298 293
254 261 268 269 265 264 260 263 260 260 258 267 266 270 272 268 261 261 264 267 270 272 272 272 272 275 278 284 285 286 285 289 294 290 298 302 305 307 306 309 309 313 316 312 309 305 303 302 300
256 257 261 267 263 262 262 264 267 267 268 268 263 261 263 269 272 273 272 270 270 272 276 277 276 281 283 284 289 291 293 292 313 303 300 304 306 308 309 308 310 313 314 314 312 309 304 302 300
258 259 261 267 267 262 262 263 263 264 266 269 265 263 265 268 269 272 275 279 279 274 270 267 278 281 284 287 292 290 293 300 300 306 298 302 306 307 307 309 312 311 313 316 313 312 308 304 302
258 261 264 264 265 265 264 263 266 271 269 266 263 263 266 269 269 269 269 269 270 269 268 274 277 280 283 290 290 293 294 300 299 304 305 307 307 308 310 310 309 310 314 317 313 309 307 308 306
262 261 264 263 265 269 270 271 272 271 267 265 265 266 265 266 267 266 267 268 269 270 272 274 277 281 281 292 300 298 296 297 302 307 308 308 309 311 311 310 308 311 316 316 314 312 310 309 308
257 260 259 259 260 264 267 270 272 269 268 266 265 265 265 265 266 267 268 267 267 269 271 273 274 281 287 294 301 297 298 302 304 306 307 308 309 311 312 310 310 314 316 317 316 314 312 311 310
255 255 258 260 263 263 268 271 272 270 270 270 266 265 265 265 266 266 267 266 266 267 269 269 270 278 285 289 290 294 299 301 304 305 306 307 308 311 313 313 313 315 318 319 319 319 320 319 318
256 255 257 260 262 266 269 273 271 271 271 272 271 266 266 268 267 267 264 264 263 266 267 265 263 267 275 283 289 295 299 301 303 303 304 307 309 313 314 313 315 317 319 321 323 321 320 319 317
255 257 257 259 261 263 265 266 268 269 270 270 271 272 271 267 267 267 265 264 264 262 265 266 266 271 277 288 295 296 298 301 302 305 306 308 313 314 313 314 316 318 322 324 325 324 321 321 318
252 253 256 254 253 255 258 261 264 267 269 269 271 273 273 269 265 263 261 261 260 260 261 266 269 272 276 284 289 292 296 300 305 307 308 311 313 314 314 315 318 322 324 326 325 324 324 325 321
252 254 255 256 253 255 256 256 262 266 270 271 270 272 272 267 262 257 258 259 261 263 264 265 267 272 279 285 292 295 300 305 306 307 309 312 314 314 314 316 318 323 325 326 324 324 324 326 326
249 250 253 254 254 255 255 257 260 263 265 267 269 268 266 264 256 254 256 261 264 265 267 269 272 275 283 292 294 299 303 305 305 306 310 313 314 314 315 317 321 325 326 325 324 325 326 328 327
248 247 251 252 254 256 256 253 257 256 257 263 264 267 270 262 256 252 254 258 260 265 275 278 282 282 288 290 294 300 302 303 304 308 311 313 314 313 315 319 325 325 326 324 323 326 328 329 327
247 247 247 247 249 250 255 257 254 255 256 256 258 259 300 263 252 250 252 256 259 264 269 274 275 280 285 289 295 298 299 302 306 310 312 312 313 314 317 321 324 325 325 323 323 327 330 329 326
246 249 249 249 250 250 250 251 255 259 261 260 262 259 251 259 257 254 253 257 261 264 268 275 276 280 286 291 293 295 300 304 308 310 310 311 314 315 319 322 323 326 324 322 324 328 329 328 325
250 248 249 249 250 250 253 252 251 251 256 262 262 265 267 269 268 264 261 260 263 265 269 274 280 284 289 290 291 295 301 306 308 309 309 312 315 318 320 323 324 325 324 324 326 330 328 327 324
252 250 250 250 250 250 249 252 254 253 249 249 260 263 266 273 276 272 269 268 269 271 273 276 279 282 286 289 293 297 302 304 307 307 310 313 316 319 322 321 324 323 323 325 328 328 328 327 325
249 252 251 251 255 252 251 252 253 252 254 253 252 252 256 279 270 270 271 264 268 274 278 280 283 288 292 295 295 299 302 303 306 308 312 314 317 320 323 321 321 323 323 327 328 328 328 326 324
248 248 249 249 241 252 252 256 257 255 253 253 256 253 244 231 274 265 263 262 264 272 277 281 286 292 295 297 299 300 302 303 305 310 312 315 320 321 321 320 321 322 324 327 327 328 328 325 323
Height
10925 10926 10928 10933 10938 10944 10947 10944 10943 10944 10945 10946 10947 10947 10949 10954 10952 10952 10950 10949 10950 10949 10950 10950 10951 10950 10949 10948 10948 10947 10948 10948 10947 10946 10945 10944 10942 10941 10938 10937 10935 10934 10932 10931 10929 10927 10926 10924 10922
10922 10923 10925 10930 10936 10945 10955 10938 10938 10938 10939 10940 10941 10943 10944 10944 10945 10945 10945 10945 10945 10945 10946 10946 10947 10947 10947 10945 10945 10942 10942 10941 10941 10941 10940 10937 10935 10932 10931 10930 10928 10927 10926 10925 10923 10921 10920 10917 10916
10918 10919 10921 10927 10932 10936 10942 10920 10930 10930 10932 10934 10934 10936 10938 10937 10939 10940 10940 10940 10940 10941 10941 10942 10942 10942 10941 10940 10940 10939 10938 10937 10935 10934 10932 10930 10929 10928 10926 10925 10922 10920 10918 10917 10914 10913 10911 10908 10906
10914 10915 10916 10921 10925 10928 10926 10924 10923 10923 10925 10927 10929 10929 10931 10932 10933 10934 10934 10935 10935 10936 10936 10935 10936 10937 10936 10936 10935 10934 10933 10931 10930 10927 10925 10923 10923 10921 10918 10916 10915 10912 10909 10906 10904 10902 10899 10896 10893
10909 10910 10912 10913 10917 10918 10918 10918 10917 10917 10919 10920 10921 10922 10924 10926 10927 10927 10928 10929 10930 10930 10930 10931 10931 10931 10930 10930 10929 10928 10927 10925 10924 10922 10920 10918 10915 10913 10911 10908 10906 10902 10899 10895 10892 10889 10885 10882 10880
10902 10904 10905 10907 10908 10908 10910 10910 10909 10909 10912 10913 10913 10915 10917 10919 10920 10921 10922 10923 10923 10924 10925 10925 10924 10924 10924 10923 10922 10921 10919 10918 10916 10914 10912 10909 10907 10904 10901 10898 10895 10891 10886 10882 10879 10875 10872 10869 10866
10895 10897 10898 10899 10902 10900 10900 10901 10901 10901 10903 10904 10907 10909 10911 10912 10912 10913 10914 10916 10918 10918 10917 10917 10917 10917 10916 10915 10914 10913 10910 10909 10907 10905 10903 10901 10899 10896 10891 10887 10882 10878 10874 10869 10865 10861 10857 10853 10849
10888 10890 10891 10893 10892 10891 10892 10892 10891 10894 10896 10897 10900 10903 10904 10905 10905 10905 10906 10907 10909 10909 10911 10911 10909 10911 10909 10908 10907 10906 10904 10901 10899 10898 10895 10892 10888 10882 10877 10871 10869 10865 10860 10856 10852 10848 10843 10839 10835
10883 10884 10885 10887 10887 10886 10885 10884 10885 10886 10889 10892 10893 10895 10895 10896 10897 10898 10898 10898 10900 10901 10902 10902 10901 10901 10900 10899 10898 10897 10895 10893 10891 10888 10885 10880 10875 10871 10867 10864 10859 10854 10850 10844 10840 10834 10830 10825 10822
10878 10879 10880 10881 10880 10879 10878 10877 10880 10881 10884 10886 10887 10887 10888 10889 10889 10890 10890 10891 10892 10893 10893 10894 10892 10891 10890 10890 10889 10888 10885 10883 10880 10877 10874 10870 10866 10862 10857 10851 10846 10843 10837 10832 10825 10819 10814 10809 10804
10873 10874 10876 10876 10875 10872 10872 10873 10877 10878 10880 10881 10880 10880 10880 10880 10881 10881 10881 10882 10884 10884 10884 10884 10883 10882 10881 10881 10880 10878 10876 10875 10872 10868 10864 10860 10855 10852 10847 10842 10837 10831 10825 10818 10813 10806 10799 10794 10789
10868 10869 10871 10870 10869 10868 10868 10870 10873 10875 10880 10877 10876 10874 10873 10873 10873 10873 10874 10876 10876 10877 10877 10875 10874 10873 10873 10873 10871 10869 10868 10865 10862 10859 10855 10851 10846 10842 10837 10832 10826 10819 10813 10805 10799 10791 10784 10778 10772
10863 10864 10865 10864 10865 10864 10864 10866 10868 10870 10870 10870 10870 10868 10867 10866 10867 10867 10868 10869 10869 10870 10870 10868 10866 10865 10864 10863 10862 10861 10859 10857 10854 10851 10847 10843 10838 10833 10826 10820 10814 10806 10800 10793 10784 10777 10770 10763 10756
10856 10859 10860 10860 10859 10858 10858 10859 10861 10862 10863 10863 10862 10861 10861 10861 10862 10863 10863 10862 10862 10863 10862 10860 10859 10857 10856 10855 10854 10852 10851 10850 10846 10843 10839 10834 10828 10822 10816 10809 10802 10795 10788 10779 10770 10763 10755 10747 10739
10850 10852 10854 10853 10853 10852 10852 10852 10854 10855 10855 10855 10855 10855 10855 10855 10855 10856 10857 10856 10856 10856 10856 10853 10852 10851 10848 10847 10846 10845 10844 10843 10839 10834 10828 10822 10817 10812 10806 10798 10792 10785 10776 10766 10757 10748 10739 10730 10721
10844 10845 10847 10847 10847 10846 10846 10846 10847 10847 10847 10846 10846 10848 10849 10848 10847 10847 10848 10849 10848 10848 10847 10846 10845 10843 10842 10840 10841 10839 10838 10834 10830 10825 10819 10813 10807 10803 10795 10788 10781 10774 10764 10753 10742 10732 10723 10713 10704
10837 10838 10839 10840 10840 10840 10839 10838 10840 10838 10838 10839 10839 10840 10841 10840 10840 10839 10840 10840 10840 10839 10839 10838 10837 10835 10835 10833 10833 10832 10829 10825 10821 10816 10810 10804 10798 10793 10785 10777 10768 10760 10750 10739 10727 10716 10705 10694 10686
10830 10829 10831 10832 10833 10833 10832 10832 10831 10830 10830 10831 10832 10833 10833 10833 10832 10831 10832 10832 10832 10832 10832 10832 10831 10829 10828 10828 10827 10824 10820 10817 10813 10807 10801 10795 10788 10782 10774 10763 10756 10747 10737 10725 10713 10699 10688 10679 10670
10823 10823 10824 10824 10826 10826 10826 10824 10823 10823 10823 10823 10824 10825 10825 10825 10825 10825 10826 10825 10824 10825 10825 10826 10826 10824 10823 10822 10819 10816 10813 10809 10804 10797 10792 10785 10778 10770 10762 10753 10744 10736 10726 10713 10700 10686 10674 10664 10654
10815 10816 10817 10819 10819 10819 10818 10815 10815 10815 10815 10816 10815 10816 10818 10817 10818 10816 10818 10818 10818 10818 10818 10818 10819 10818 10816 10814 10811 10808 10805 10800 10795 10788 10781 10774 10766 10758 10749 10741 10733 10723 10712 10699 10685 10673 10661 10648 10635
10805 10807 10809 10809 10811 10810 10810 10808 10807 10807 10808 10809 10809 10810 10812 10812 10812 10811 10811 10811 10812 10813 10812 10812 10811 10810 10809 10807 10804 10801 10797 10792 10785 10778 10770 10763 10755 10746 10737 10728 10719 10709 10697 10685 10673 10660 10648 10634 10618
10794 10800 10799 10801 10802 10801 10803 10800 10800 10801 10801 10802 10802 10803 10806 10806 10807 10805 10806 10806 10806 10805 10804 10804 10803 10802 10801 10799 10795 10791 10787 10781 10774 10767 10760 10751 10743 10734 10725 10717 10708 10696 10683 10671 10659 10647 10635 10620 10605
10783 10787 10788 10792 10793 10794 10796 10794 10792 10794 10792 10793 10794 10796 10797 10798 10798 10798 10799 10800 10799 10797 10795 10796 10796 10794 10792 10789 10785 10781 10776 10770 10763 10757 10750 10741 10732 10723 10714 10705 10695 10683 10670 10659 10648 10636 10623 10607 10592
10772 10774 10777 10779 10782 10787 10785 10788 10784 10785 10784 10784 10785 10788 10790 10791 10790 10791 10792 10792 10792 10791 10789 10786 10785 10784 10783 10780 10776 10772 10765 10759 10753 10746 10738 10730 10721 10711 10704 10692 10682 10671 10660 10647 10635 10622 10607 10592 10577
10757 10761 10763 10766 10769 10774 10774 10778 10777 10773 10776 10774 10777 10783 10794 10786 10783 10784 10785 10784 10784 10784 10781 10777 10775 10774 10773 10770 10766 10761 10755 10750 10743 10735 10728 10720 10713 10702 10692 10681 10670 10659 10647 10634 10622 10608 10593 10577 10564
10745 10745 10750 10754 10758 10760 10761 10766 10765 10768 10768 10768 10767 10773 10779 10776 10776 10778 10778 10777 10776 10774 10772 10767 10763 10764 10763 10760 10756 10752 10746 10739 10733 10726 10717 10710 10703 10693 10682 10670 10659 10648 10634 10620 10608 10594 10579 10565 10553
10726 10734 10735 10742 10745 10747 10750 10753 10754 10753 10758 10757 10758 10763 10769 10770 10768 10768 10768 10769 10768 10767 10766 10760 10754 10755 10754 10751 10746 10741 10735 10730 10723 10716 10707 10700 10692 10681 10671 10660 10648 10635 10622 10609 10595 10581 10567 10554 10542
10713 10719 10723 10724 10731 10735 10738 10740 10742 10740 10744 10745 10748 10752 10758 10764 10762 10756 10755 10757 10757 10758 10758 10754 10747 10748 10746 10741 10736 10732 10726 10720 10715 10706 10698 10690 10681 10672 10660 10648 10637 10623 10610 10597 10583 10569 10554 10542 10531
10701 10704 10708 10714 10718 10720 10725 10728 10719 10731 10730 10738 10735 10741 10760 10775 10739 10739 10741 10743 10744 10745 10744 10744 10738 10738 10737 10732 10728 10723 10718 10711 10705 10696 10688 10680 10671 10661 10649 10637 10624 10612 10598 10585 10570 10556 10542 10530 10519
10687 10691 10692 10699 10698 10706 10713 10723 10711 10713 10717 10719 10724 10724 10762 10781 10741 10730 10730 10729 10733 10734 10732 10731 10728 10727 10726 10723 10719 10713 10709 10702 10695 10688 10679 10670 10661 10650 10638 10626 10614 10602 10587 10572 10556 10542 10529 10518 10508